SL-14 DEB, 45318

Orbit data source: Space-Track

SL-14 DEB, 45318 is space debris in LEO originally from a launch on Thu, 15 Aug 1991 UTC launched from the Plesetsk Missile And Space Complex (PKMTR). Debris objects in space refer to the collection of defunct objects orbiting the Earth. Examples of debris include non-operational satellites, rocket bodies, and fragments generated from explosions, collisions, or faulty payload assembly.

Loading next visibility...
Identifier
45318, 1991-056BG
Orbit
LEO
Country
Flag of CISCIS
Related business
Manufacturer
Unknown
Mission
Spacecraft
Bus & Motor
Unknown
Mass
Unknown
Launch date (UTC)
1991-08-15 (35 years ago)
Launch vehicle
Unknown
Launch site
Plesetsk Missile And Space Complex (PKMTR)
Object type
Payload
Rocket body
Debris
Shape & HBR
Unknown shape, 0.2 m
Radar Cross Section
Medium (>0.1 m² and <1 m²)

Expand to show TLE details & history
Last TLE update: 9 hours ago

TLE from 9 hours ago
0 SL-14 DEB
1 45318U 91056BG  26249.49247820  .00000189  00000-0  43977-3 0  9992
2 45318  82.5652  79.5057 0010488 229.6958 130.3250 13.19756562314294
Epoch: 2026-09-06T11:49Z
TLE epoch observation values (Epoch: 2026-09-06T11:49:10.116Z)
Latitude
-0.00003°
Longitude
-83.37327°
Altitude
1,193.601 km
Speed
7.255 km/s
True Right ascension
05h 18m 01s
True Declination
0° 00' 00"
Sunlit
Object was in daylight at epoch
Visualization orbit readout
Latitude
Unknown
Longitude
Unknown
Altitude
Unknown
Speed
Unknown
Apparent Right ascension
Unknown
Apparent Declination
Unknown
Sunlit
N/A
Visualization observer readout
Local Sidereal Time
13:20:45
Azimuth
Unknown
Elevation
Unknown
Doppler factor
Unknown
Orbital elements
Apogee altitude
1,190.82 km
Perigee altitude
1,174.96 km
Semi-major axis
7,561.027 km
Eccentricity
0.00105
Inclination
82.5652°
RAAN
79.5057°
Arg. of periapsis
229.6958°
True anomaly
130.41655°
Mean anomaly
130.325°
Eccentric anomaly
130.37078°
Mean motion
3.3012 °/min
Orbital period
109.05 mins
BSTAR
0.00043977
Loading maneuver chart data...
Computing Atmospheric mass density...
Loading historical data...
Loading historical data...
Loading historical data...
Loading historical data...
Loading historical data...
Loading historical data...
Loading historical data...

Documentation

Showing up to 5 results
|